sat.trackr.live / text

‹ back to catalog

LKW-4

NORAD 43236 · 2018-025A

PAYLOAD ACTIVE UNKNOWN

§ Identity

Operator
Country
PRC
Launch date
2018-03-17
Launch site
JSC
Launch vehicle
Mass (kg)
RCS (m²)

External: N2YO · Heavens-Above · Gunter

§ Orbital elements

Epoch: 2026-09-15T22:36:56.232864Z

Period
91.71 min
Inclination
97.6373°
Eccentricity
0.0001970
Mean motion
15.70129724 rev/d
Perigee alt
357.2 km
Apogee alt
359.9 km
Semi-major
6,736.7 km
B*
4.6656e-4
RAAN
77.4998°
Arg perigee
332.2270°
Mean anomaly
27.8886°
Rev number
47,423

§ Raw data

LKW-41 43236U 18025A   26258.94231751  .00056442  00000+0  46656-3 0  99992 43236  97.6373  77.4998 0001970 332.2270  27.8886 15.70129724474232

JSON: /api/v1/satellites/43236 · /tle

For live sub-satellite position, see the globe view (requires WebGL).

§ Visibility from observer

Set your observer location to see the next 7 days of passes ≥ 10°. The values pass through the URL so the page stays shareable.

No JS? Fill the form by hand. The geolocation button needs JavaScript.

§ Radio — SatNOGS DB

ModeDescriptionDownlinkUplink
FM S-band telemetry 2.228 GHz
FM Telemetry 401.750 MHz

2 transmitters · refreshed weekly from db.satnogs.org